This is the latest recevied weather packets stored in our database for station/object OK5TVR-12. If no packets are shown the sender has not sent any weather packets the latest 10 day(s).
| Time | Temp. | Humidity | Pressure | Rain* | Wind** | Luminosity | Snow |
|---|---|---|---|---|---|---|---|
| 1787588012 | 16.67° C | 41% | 1020.4 hPa | 0 mm | - | - | - |
| 1787587116 | 17.22° C | 40% | 1020.7 hPa | 0 mm | - | - | - |
| 1787587112 | 17.22° C | 40% | 1020.7 hPa | 0 mm | - | - | - |
| 1787587112 | 17.22° C | 40% | 1020.7 hPa | 0 mm | - | - | - |
| 1787586213 | 17.22° C | 39% | 1020.8 hPa | 0 mm | - | - | - |
| 1787585316 | 17.78° C | 38% | 1021 hPa | 0 mm | - | - | - |
| 1787585312 | 17.78° C | 38% | 1021 hPa | 0 mm | - | - | - |
| 1787585312 | 17.78° C | 38% | 1021 hPa | 0 mm | - | - | - |
| 1787584416 | 18.89° C | 36% | 1021.1 hPa | 0 mm | - | - | - |
| 1787584412 | 18.89° C | 36% | 1021.1 hPa | 0 mm | - | - | - |
| 1787583512 | 18.33° C | 37% | 1021.3 hPa | 0 mm | - | - | - |
| 1787582616 | 18.89° C | 35% | 1021.4 hPa | 0 mm | - | - | - |
| 1787582612 | 18.89° C | 35% | 1021.4 hPa | 0 mm | - | - | - |
| 1787582612 | 18.89° C | 35% | 1021.4 hPa | 0 mm | - | - | - |
| 1787581716 | 18.33° C | 36% | 1021.4 hPa | 0 mm | - | - | - |
| 1787581712 | 18.33° C | 36% | 1021.4 hPa | 0 mm | - | - | - |
| 1787581712 | 18.33° C | 36% | 1021.4 hPa | 0 mm | - | - | - |
| 1787580812 | 18.33° C | 37% | 1021.4 hPa | 0 mm | - | - | - |
| 1787579912 | 18.89° C | 34% | 1021.5 hPa | 0 mm | - | - | - |
| 1787579012 | 18.33° C | 34% | 1021.7 hPa | 0 mm | - | - | - |
| 1787579012 | 18.33° C | 34% | 1021.7 hPa | 0 mm | - | - | - |
| 1787578112 | 18.89° C | 35% | 1021.7 hPa | 0 mm | - | - | - |
| 1787577212 | 19.44° C | 34% | 1021.7 hPa | 0 mm | - | - | - |
| 1787577212 | 19.44° C | 34% | 1021.7 hPa | 0 mm | - | - | - |
| 1787576312 | 19.44° C | 33% | 1021.8 hPa | 0 mm | - | - | - |
* Rain latest hour (hover to see other rain measurements)
** Current wind speed in m/s (hover to see current wind gust speed)